Location: Ammerl�gen
(47.2167°N, 9.6000°E)
Time: 06:08:47
(UTC+00:00)

NOSS 3-1 (C) - Pass Details

Date: 21 April 2021
Orbit: 732 x 1476 km, 63.4° (Epoch: 18 April)

Event Time Altitude Azimuth Distance (km) Brightness Sun altitude
Rises 21:52:38 0° 318° (NW) 3,946 7.8 -27.5°
Reaches altitude 10° 21:55:11 10° 315° (NW) 3,084 7.0 -27.6°
Maximum altitude 22:02:37 63° 237° (WSW) 1,445 4.2 -28.1°
Enters shadow 22:04:16 54° 192° (SSW) 1,598 4.2 -28.2°
